www.pogodaiklimat.ru

Погода и климат >> Архив погоды >> Греция >> Souda


ПОГОДА в Souda

  • Прогноз погоды в Souda
  • Монитор погоды в Souda
  • Климат города

АРХИВ ПОГОДЫ в Souda

Время (UTC), дата Ветер
(напр.,м/с)
 
Видим.   Явления Облачность Т
(С)
Тd
(С)
f
(%)
Тe
(С)
Тes
(С)
Комфортность P
(гПа)
Po
(гПа)
Тmin
(С)
Tmax
(С)
R
(мм)
R24
(мм)
S
(см)
00 11.01 СЗ 2
{7}
10 км 4/3 600 м
[Cu hum Ac und]
+12.4 +10.1 86 +11 +11 1011.1 993.0
03 11.01 СЗ 3
{6}
10 км 4/3 600 м
[Cu hum Ac und]
+11.8 +10.6 92 +10 +10 1010.7 992.6
06 11.01 СЗ 2 10 км 5/3 600 м
[Cu hum Ac und]
+10.2 +9.0 92 +9 +9 1011.4 993.1 +10.2
09 11.01 Ю 3
{5}
10 км {дождь} 8/3 600 м
[Cu hum Ac und]
+15.4 +12.5 83 +15 +17 1011.5 993.5
12 11.01 З 7
{10}
10 км {дождь} 9/5 600 м
[Cu Sc Ac und]
+15.8 +12.2 79 +14 +14 1010.7 992.7 0.0
15 11.01 З 8
{13}
10 км {дождь} 8/4 600 м
[Cu Sc Ac und]
+13.6 +12.5 93 +11 +11 1011.6 993.5
18 11.01 З 8
{11}
10 км {дождь} 5/4 750 м
[Cu med, cong Ac und]
+12.8 +10.1 84 +10 +10 1013.0 994.7 +16.6 1
21 11.01 З 5
{11}
10 км 6/4 750 м
[Cu med, cong Ac und]
+13.0 +10.3 84 +11 +11 1013.8 995.6
00 12.01 З 5
{11}
10 км 1/1 600 м
[Cu med, cong Ac und]
+13.0 +9.1 77 +11 +11 1014.2 996.0
03 12.01 З 8
{9}
10 км 1/1 600 м
[Cu med, cong Ac und]
+12.0 +10.1 88 +9 +9 1015.3 997.0
06 12.01 З 6
{10}
10 км 1/1 600 м
[Cu hum]
+11.4 +6.8 73 +8 +9 1016.5 998.2 +11.4
09 12.01 В 3
{7}
10 км 3/3 600 м
[Cu hum]
+16.4 +9.5 64 +16 +19 1017.5 999.4
12 12.01 СВ 5
{7}
10 км 3/3 600 м
[Cu hum]
+17.2 +11.3 68 +17 +18 1015.5 997.6
15 12.01 СВ 3
{9}
10 км 3/3 600 м
[Cu hum]
+15.0 +10.9 76 +14 +15 1015.0 997.0
18 12.01 Ю 2
{7}
10 км 6/5 750 м
[Cu med, cong Ac und]
+13.6 +10.1 79 +13 +13 1015.3 997.1 +17.8
21 12.01 ЮЗ 2
{6}
10 км 3/3 600 м
[Cu med, cong Ac und]
+10.4 +9.2 92 +9 +9 1014.9 996.5
00 13.01 ЮВ 4
{14}
10 км 5/3 750 м
[Cu med, cong Ac und]
+12.8 +8.8 77 +11 +11 1012.3 994.0
03 13.01 СЗ 5
{13}
10 км в посл. час гроза {дождь} 8/5 600 м
[Cu Sc Ac und]
+10.0 +9.2 95 +7 +7 1011.4 993.1
06 13.01 СВ 5 10 км {гроза, дождь} 8/5 600 м
[Cu Sc Ac und]
+10.4 +8.4 87 +8 +8 1010.9 992.6 +10.0 1
09 13.01 В 3
{6}
10 км {дождь} 6/3 750 м
[Cu med, cong Ac und Cs]
+15.0 +10.1 72 +14 +17 1011.1 993.1
12 13.01 С 2
{8}
10 км {дождь} 6/4 600 м
[Cu med, cong Ac und Cs]
+16.0 +10.4 69 +16 +19 1009.8 991.8 0.2
15 13.01 Ю 2
{6}
10 км {дождь} 8/5 600 м
[Sc Ac und Cs]
+13.6 +10.6 82 +13 +13 1009.8 991.8
18 13.01 З 3
{4}
10 км {дождь} 5/4 600 м
[Cu med, cong Ac und Ci fib]
+10.6 +9.0 90 +8 +8 1011.1 992.9 +16.0 0.3
21 13.01 СЗ 3
{8}
10 км 8/4 600 м
[Cu med, cong Ac und]
+10.4 +8.8 90 +8 +8 1012.0 993.6
00 14.01 З 3
{4}
10 км 4/4 600 м
[Cu Sc]
+8.8 +7.1 89 +6 +6 1012.5 993.9
03 14.01 С 5
{11}
8000 м гроза, ливневой дождь 9/5 540 м
[Cb cap As op]
+10.0 +8.4 90 +7 +7 1013.5 995.1
06 14.01 С 9 9000 м слабый дождь {гроза} 9/8 360 м
[St As op]
+10.4 +9.6 95 +6 +6 1016.3 997.9 +8.8 7
09 14.01 С 9
{17}
10 км 9/8 360 м
[St Ac und]
+11.6 +8.4 81 +8 +8 1019.8 1001.4
12 14.01 С 8
{17}
10 км 9/6 540 м
[Cu Sc Ac und]
+12.0 +7.0 71 +9 +9 1020.7 1002.3
15 14.01 С 6
{14}
10 км 8/8 540 м
[Cu Sc]
+11.2 +6.6 73 +8 +8 1022.6 1004.2
18 14.01 С 5
{12}
10 км 9/9 540 м
[Cu Sc]
+10.4 +7.0 79 +7 +7 1024.5 1005.9 +12.0
21 14.01 С 4
{10}
10 км 8/8 540 м
[Cu Sc]
+10.0 +6.6 79 +7 +7 1026.6 1007.9
00 15.01 С 3
{7}
10 км 6/6 540 м
[Cu Sc]
+9.4 +7.8 90 +7 +7 1026.6 1007.9
03 15.01 штиль 0
{4}
10 км 6/6 540 м
[Cu Sc]
+8.4 +7.1 92 +7 +7 1026.7 1007.9
06 15.01 ЮВ 2 10 км 5/5 600 м
[Cu Sc]
+7.8 +5.6 86 +6 +6 1027.1 1008.3 +7.4
09 15.01 В 4
{7}
10 км 3/3 600 м
[Cu hum]
+12.6 +7.7 72 +11 +13 1027.8 1009.3
12 15.01 В 4
{7}
10 км 4/3 600 м
[Cu hum Ci fib]
+13.2 +8.9 75 +12 +14 1026.2 1007.8
15 15.01 В 3
{7}
10 км 5/3 750 м
[Cu hum Cs]
+11.8 +8.6 81 +10 +10 1026.0 1007.5
18 15.01 Ю 3
{5}
10 км 5/3 750 м
[Cu hum Cs]
+9.8 +8.6 92 +8 +8 1026.0 1007.4 +13.4
21 15.01 штиль 0
{5}
10 км 3/3 600 м
[Cu hum]
+8.4 +7.1 92 +7 +7 1026.2 1007.4
00 16.01 ЮВ 3
{5}
10 км 3/3 600 м
[Cu hum]
+9.2 +6.6 84 +7 +7 1024.6 1006.0
03 16.01 СЗ 3
{4}
10 км 6/3 600 м
[Cu hum Ac und Cs]
+9.2 +6.6 84 +7 +7 1023.1 1004.6
06 16.01 ЮЗ 4 10 км в посл. час дождь 8/4 600 м
[Cu Sc Ac und]
+11.4 +10.2 92 +9 +9 1023.0 1004.6 +8.0 0.5
09 16.01 З 7
{14}
10 км {дождь} 8/1 600 м
[Cu hum Ac trans Cs]
+15.2 +9.4 68 +13 +14 1022.0 1003.9
12 16.01 З 9
{16}
10 км {дождь} 4/4 600 м
[Cu hum]
+15.6 +11.1 75 +14 +14 1020.0 1001.9 0.4
15 16.01 З 8
{16}
10 км 5/5 750 м
[Cu Sc]
+14.6 +10.0 74 +12 +12 1019.1 1000.9
21 16.01 З 8
{13}
10 км в посл. час дождь 6/4 600 м
[Cu Sc Ac und]
+11.4 +10.2 92 +8 +8 1018.2 999.8
00 17.01 З 8
{13}
10 км {дождь} 6/4 600 м
[Cu Sc Ac und]
+12.2 +10.3 88 +9 +9 1016.5 998.2 5
03 17.01 З 8
{14}
10 км {дождь} 6/4 600 м
[Cu Sc Ac und]
+12.4 +10.9 91 +9 +9 1015.0 996.7
06 17.01 З 6 10 км {дождь} 5/5 600 м
[Cu Sc]
+12.6 +10.7 88 +10 +10 1014.5 996.2 +11.4 5
09 17.01 З 8
{15}
10 км 5/5 600 м
[Cu Sc]
+15.6 +11.1 75 +14 +14 1012.9 994.9
12 17.01 З 10
{23}
10 км 9/9 750 м
[Cu Sc]
+15.4 +12.1 81 +13 +13 1011.1 993.1
15 17.01 З 8
{18}
10 км 6/6 600 м
[Cu med, cong]
+15.4 +10.9 75 +13 +13 1009.5 991.5
18 17.01 З 11
{16}
10 км 6/6 540 м
[Cu Sc]
+15.0 +10.9 76 +12 +12 1008.3 990.5 +17.0
21 17.01 З 11
{21}
10 км 6/6 540 м
[Cu Sc]
+15.4 +10.1 71 +13 +13 1006.0 988.2

 

Местоположение метеостанции Souda (Греция): широта 35.48 долгота 24.12 высота над уровнем моря 151 м.

В архиве по умолчанию представлена погода в Souda за последнюю неделю. Архивные данные за месяц целиком и за предыдущие месяцы, начиная с января 2011 года, Вы можете получить, выбрав интересующий диапазон дат из раскрывающегося списка и нажав кнопку "Ввод!".

Внимание! Время в таблицах - всемирное. Для получения местного времени необходимо прибавить поправку, которая в Souda равна 2 ч.

Смотрите также архив погоды в соседних городах и на ближайших метеорологических станциях:

Погода в Heraklion (Греция) (98 км)
Погода в Kasteli (Греция) (114 км)
Погода в Kythira (Греция) (133 км)
Погода в Milos (Греция) (141 км)
Погода в Sitia (Греция) (182 км)
Погода в Naxos (Греция) (213 км)
Погода в Kalamata (Греция) (258 км)
Погода в Methoni (Греция) (264 км)
Погода в Athens (Греция) (271 км)
Погода в El Venizelos (Греция) (272 км)

Пояснения к столбцам:

Ветер - указаны скорость ветра в м/с - средняя за 10 мин, порывы в срок и между сроками (в фигурных скобках) и направление, откуда дует ветер: С - северный, СВ - северо-восточный, В - восточный, ЮВ - юго-восточный, Ю - южный, ЮЗ - юго-западный, З - западный, СЗ - северо-западный.
Видимость - горизонтальная дальность видимости в метрах или километрах. При видимости от 1 до 10 км при отсутствии осадков обычно наблюдается дымка, при ухудшении видимости до 1 км и менее - туман. В сухую погоду видимость может ухудшаться дымом, пылью или мглою.
Явления - указаны атмосферные явления, наблюдавшиеся в срок или в последний час перед сроком; фигурными скобками обозначены явления, наблюдавшиеся между сроками (за 1-3 часа до срока); квадратными скобками обозначены град или гололедные отложения с указанием их диаметра в мм.
Облачность - указаны через наклонную черту общая и нижняя облачность в баллах и высота нижней границы облаков в метрах; квадратными скобками обозначены формы облаков: Ci - перистые, Cs - перисто-слоистые, Cc - перисто-кучевые, Ac - высококучевые, As - высокослоистые, Sc - слоисто-кучевые, Ns - слоисто-дождевые, Cu - кучевые, Cb - кучево-дождевые. Подробнее классификацию облаков см. в Атласе облаков (PDF).
T - Температура воздуха - температура, измеренная на высоте 2 м над землей.
Td - Температура точки росы - температура, при понижении до которой содержащийся в воздухе водяной пар достигнет насыщения.
f - Относительная влажность воздуха - влажноcть воздуха, измеренная на высоте 2 м над землей.
Te - Эффективная температура - температура, которую ощущает одетый по сезону человек в тени. Характеристика душности погоды. При расчете учитывается влияние влажности воздуха и скорости ветра на теплоощущения человека.
Tes - Эффективная температура на солнце - температура, которую ощущает человек, с поправкой на солнечный нагрев. Характеристика знойности погоды. Зависит от высоты солнца над горизонтом, облачности и скорости ветра. Ночью, в пасмурную погоду, а также при ветре 12 м/с и более поправка равна нулю.
P - Атмосферное давление - приведенное к уровню моря атмосферное давление.
Po - Атмосферное давление - измеренное на уровне метеостанции атмосферное давление.
Tmin - Минимальная температура - минимум температуры воздуха на высоте 2 м над землей.
Tmax - Максимальная температура - максимум температуры воздуха на высоте 2 м над землей.
R - Количество осадков - Количество выпавших осадков за период времени, мм. При наведении курсора мыши на число - период времени, за который выпало указанное количество осадков.
R24 - Количество осадков - Количество выпавших осадков за 24 часа, мм.
S - Снежный покров - Высота снежного покрова, см. При наведении курсора мыши на число - состояние снежного покрова и степень покрытия местности в баллах.